TimeEST,TemperatureF,Dew PointF,Humidity,Sea Level PressureIn,VisibilityMPH,Wind Direction,Wind SpeedMPH,Gust SpeedMPH,PrecipitationIn,Events,Conditions,WindDirDegrees,DateUTC
12:15 AM,60.1,59.7,99,30.13,7.0,Calm,Calm,-,N/A,,Mostly Cloudy,0,2013-11-07 05:15:00
12:35 AM,60.8,60.8,100,30.13,2.0,Calm,Calm,-,N/A,,Overcast,0,2013-11-07 05:35:00
12:55 AM,59.9,59.5,99,30.12,4.0,Calm,Calm,-,N/A,,Mostly Cloudy,0,2013-11-07 05:55:00
1:15 AM,60.8,60.6,99,30.10,10.0,SE,4.6,-,N/A,,Overcast,130,2013-11-07 06:15:00
1:35 AM,62.1,61.9,99,30.09,10.0,SE,4.6,-,N/A,,Scattered Clouds,140,2013-11-07 06:35:00
1:55 AM,62.1,61.7,99,30.08,10.0,SSE,3.5,-,N/A,,Clear,150,2013-11-07 06:55:00
2:15 AM,61.5,61.2,99,30.08,10.0,Calm,Calm,-,N/A,,Clear,0,2013-11-07 07:15:00
2:55 AM,62.8,62.2,98,30.06,10.0,SSE,4.6,-,N/A,,Clear,160,2013-11-07 07:55:00
3:15 AM,64.0,63.0,96,30.05,10.0,South,4.6,-,N/A,,Scattered Clouds,170,2013-11-07 08:15:00
3:35 AM,64.6,63.1,95,30.04,10.0,South,5.8,-,N/A,,Scattered Clouds,170,2013-11-07 08:35:00
3:55 AM,65.5,63.5,93,30.03,10.0,South,5.8,-,N/A,,Mostly Cloudy,180,2013-11-07 08:55:00
4:15 AM,66.4,63.5,90,30.02,10.0,South,6.9,-,N/A,,Overcast,180,2013-11-07 09:15:00
4:35 AM,66.4,63.7,91,30.02,10.0,SSW,9.2,-,N/A,,Mostly Cloudy,200,2013-11-07 09:35:00
4:55 AM,65.5,63.1,92,30.01,10.0,SSW,9.2,-,N/A,,Overcast,200,2013-11-07 09:55:00
5:15 AM,64.4,62.8,94,30.00,10.0,South,6.9,-,N/A,,Overcast,190,2013-11-07 10:15:00
5:35 AM,64.6,63.0,94,30.00,10.0,South,8.1,-,N/A,,Overcast,190,2013-11-07 10:35:00
5:55 AM,64.8,63.7,96,29.99,4.0,SSW,10.4,-,N/A,Rain,Rain,200,2013-11-07 10:55:00
6:15 AM,64.6,63.5,96,29.99,10.0,South,6.9,-,N/A,,Overcast,190,2013-11-07 11:15:00
6:35 AM,64.0,63.0,96,29.99,10.0,South,6.9,-,N/A,,Overcast,190,2013-11-07 11:35:00
6:55 AM,64.4,63.5,97,29.99,7.0,SSW,6.9,-,N/A,,Drizzle,200,2013-11-07 11:55:00
7:15 AM,64.6,63.7,97,29.98,7.0,South,6.9,-,N/A,,Light Drizzle,190,2013-11-07 12:15:00
7:35 AM,64.6,63.5,96,29.98,10.0,South,4.6,-,N/A,,Overcast,180,2013-11-07 12:35:00
7:55 AM,65.3,63.7,94,29.98,10.0,South,5.8,-,N/A,,Overcast,190,2013-11-07 12:55:00
8:15 AM,65.5,64.2,96,29.98,5.0,SW,11.5,-,N/A,Rain,Heavy Rain,220,2013-11-07 13:15:00
8:35 AM,63.9,63.5,99,29.98,3.0,SW,5.8,-,N/A,,Drizzle,220,2013-11-07 13:35:00
8:55 AM,64.0,63.9,99,29.98,3.0,SSW,3.5,-,N/A,,Drizzle,210,2013-11-07 13:55:00
9:15 AM,64.6,64.4,99,29.97,4.0,Calm,Calm,-,N/A,,Heavy Drizzle,0,2013-11-07 14:15:00
9:35 AM,64.9,64.9,100,29.96,4.0,Calm,Calm,-,N/A,Rain,Rain,0,2013-11-07 14:35:00
9:55 AM,65.8,65.7,99,29.96,4.0,Calm,Calm,-,N/A,,Drizzle,0,2013-11-07 14:55:00
10:15 AM,63.9,63.7,99,29.96,3.0,Calm,Calm,-,N/A,,Heavy Drizzle,0,2013-11-07 15:15:00
10:35 AM,64.0,64.0,100,29.96,2.5,WSW,4.6,-,N/A,Rain,Heavy Rain,240,2013-11-07 15:35:00
10:55 AM,64.8,64.4,99,29.94,3.0,NNW,3.5,-,N/A,,Heavy Drizzle,330,2013-11-07 15:55:00
11:15 AM,65.3,64.8,98,29.93,5.0,SW,3.5,-,N/A,,Drizzle,220,2013-11-07 16:15:00
11:35 AM,65.1,64.6,98,29.92,3.0,West,3.5,-,N/A,,Drizzle,270,2013-11-07 16:35:00
11:55 AM,65.3,64.8,98,29.92,1.8,WNW,5.8,-,N/A,,Heavy Drizzle,290,2013-11-07 16:55:00
12:15 PM,63.0,62.6,99,29.91,3.0,NW,8.1,-,N/A,Rain,Rain,320,2013-11-07 17:15:00
12:35 PM,62.8,62.6,99,29.90,2.0,NW,6.9,-,N/A,,Drizzle,320,2013-11-07 17:35:00
12:55 PM,62.6,62.6,100,29.90,3.0,NW,4.6,-,N/A,,Light Drizzle,310,2013-11-07 17:55:00
1:15 PM,63.0,62.8,99,29.88,10.0,NNW,3.5,-,N/A,,Overcast,330,2013-11-07 18:15:00
1:35 PM,63.7,63.0,97,29.88,10.0,WNW,4.6,-,N/A,,Scattered Clouds,300,2013-11-07 18:35:00
1:55 PM,63.5,62.8,97,29.88,10.0,WNW,5.8,-,N/A,,Clear,300,2013-11-07 18:55:00
2:15 PM,63.7,63.0,97,29.88,10.0,WNW,4.6,-,N/A,,Scattered Clouds,300,2013-11-07 19:15:00
2:35 PM,64.2,63.1,96,29.89,10.0,WNW,4.6,-,N/A,,Scattered Clouds,300,2013-11-07 19:35:00
2:55 PM,64.4,63.0,95,29.89,10.0,WNW,4.6,-,N/A,,Clear,300,2013-11-07 19:55:00
3:15 PM,64.6,63.1,95,29.88,10.0,WNW,4.6,-,N/A,,Clear,300,2013-11-07 20:15:00
3:35 PM,65.3,63.5,94,29.88,10.0,WNW,3.5,-,N/A,,Clear,290,2013-11-07 20:35:00
3:55 PM,65.5,63.5,93,29.89,10.0,NW,5.8,-,N/A,,Clear,310,2013-11-07 20:55:00
4:15 PM,65.5,62.8,91,29.89,10.0,WNW,5.8,-,N/A,,Clear,300,2013-11-07 21:15:00
4:35 PM,64.9,62.6,92,29.89,10.0,WNW,4.6,-,N/A,,Clear,290,2013-11-07 21:35:00
4:55 PM,64.8,62.1,91,29.88,10.0,Calm,Calm,-,N/A,,Scattered Clouds,0,2013-11-07 21:55:00
5:15 PM,64.6,61.9,91,29.89,10.0,NW,3.5,-,N/A,,Mostly Cloudy,310,2013-11-07 22:15:00
5:55 PM,64.4,61.7,91,29.90,10.0,WNW,4.6,-,N/A,,Overcast,300,2013-11-07 22:55:00
6:15 PM,64.4,61.7,91,29.91,10.0,WNW,4.6,-,0.01,,Overcast,300,2013-11-07 23:15:00
6:35 PM,64.0,61.3,91,29.92,10.0,WNW,4.6,-,0.01,,Overcast,290,2013-11-07 23:35:00
6:55 PM,63.9,61.3,91,29.92,10.0,NW,3.5,-,0.01,,Mostly Cloudy,310,2013-11-07 23:55:00
7:15 PM,63.9,60.8,90,29.93,10.0,NW,3.5,-,N/A,,Mostly Cloudy,310,2013-11-08 00:15:00
7:35 PM,63.9,60.1,87,29.94,10.0,NNW,6.9,-,N/A,,Mostly Cloudy,330,2013-11-08 00:35:00
7:55 PM,61.0,55.8,83,29.96,10.0,NNE,10.4,-,N/A,,Overcast,30,2013-11-08 00:55:00
8:15 PM,60.1,55.4,85,29.97,10.0,NNE,11.5,-,N/A,,Overcast,20,2013-11-08 01:15:00
8:35 PM,60.1,55.6,85,29.97,10.0,NNE,11.5,17.3,N/A,,Overcast,30,2013-11-08 01:35:00
8:55 PM,59.9,56.1,87,29.98,10.0,NNE,16.1,20.7,N/A,,Overcast,30,2013-11-08 01:55:00
9:15 PM,59.4,54.1,83,29.98,10.0,NNE,15.0,21.9,N/A,,Overcast,30,2013-11-08 02:15:00
9:35 PM,59.0,52.3,79,29.98,10.0,NNE,16.1,21.9,N/A,,Overcast,30,2013-11-08 02:35:00
9:55 PM,58.6,52.0,79,29.99,10.0,NNE,13.8,21.9,N/A,,Overcast,30,2013-11-08 02:55:00
10:15 PM,58.1,51.1,77,30.00,10.0,NNE,20.7,27.6,N/A,,Overcast,20,2013-11-08 03:15:00
10:35 PM,57.6,49.1,73,30.00,10.0,NNE,19.6,26.5,N/A,,Overcast,30,2013-11-08 03:35:00
10:55 PM,57.2,47.8,71,30.01,10.0,NNE,17.3,28.8,N/A,,Overcast,30,2013-11-08 03:55:00
11:15 PM,56.7,45.9,67,30.01,10.0,NNE,18.4,25.3,N/A,,Overcast,20,2013-11-08 04:15:00
11:35 PM,56.3,44.6,65,30.02,10.0,NNE,19.6,28.8,N/A,,Overcast,20,2013-11-08 04:35:00
11:55 PM,55.9,44.2,65,30.02,10.0,NNE,13.8,21.9,N/A,,Overcast,20,2013-11-08 04:55:00